Location: Croagnes
(43.9363°N, 5.3265°E)
Time: 22:23:04
(UTC+00:00)

Meteor 1-16 Rocket - Pass Details

Date: 03 October 2020
Orbit: 790 x 908 km, 81.2° (Epoch: 22 October)

Event Time Altitude Azimuth Distance (km) Brightness Sun altitude
Exits shadow 19:00:57 34° 86° (E) 1,437 4.9 -19.7°
Drops below altitude 10° 19:05:56 10° 28° (NNE) 2,558 6.6 -20.6°
Sets 19:08:34 0° 19° (NNE) 3,486 7.4 -21.1°
